773  
ASUS44 KSHV 230510  
RWRSHV  
 
WEATHER ROUNDUP FOR THE FOUR STATE AREA  
NATIONAL WEATHER SERVICE SHREVEPORT LA  
1200 AM CDT SAT SEP 23 2017  
 
NOTE: "FAIR" INDICATES FEW OR NO CLOUDS BELOW 12000 FEET  
WITH NO SIGNIFICANT WEATHER AND/OR S TO VISIBILITY
.  
 
!LAZ001-LAZ014-TXZ097-230600  
SHREVEPORT...MONROE...TEXARKANA RADIOS  
 
CITY SKY/WX TMP DP RH WIND PRES REMARKS
 
SHREVEPORT NOT AVBL  
MONROE CLEAR 75 74 96 CALM 29.95F  
NATCHITOCHES CLEAR 71 71 100 CALM 29.95S  
TEXARKANA CLEAR 76 68 76 SE5 29.96S  

 
 
!LAZ001-LAZ014-TXZ097-230600  
OTHER LOCATIONS...  
 
CITY SKY/WX TMP DP RH WIND PRES REMARKS
 
DOWNTOWN SHV CLEAR 77 70 79 CALM 29.95S  
BOSSIER CITY CLEAR 73 71 93 CALM 29.94S  
RUSTON CLEAR 71 70 95 CALM 29.99F  
LITTLE ROCK CLEAR 75 72 90 CALM 29.98S  
EL DORADO CLEAR 72 70 93 CALM 29.97S  
JACKSON CLEAR 74 72 93 CALM 29.96F  
NEW ORLEANS PTCLDY 78 75 90 CALM 29.94S  
HOUSTON CLEAR 76 73 91 CALM 29.92S  
LUFKIN NOT AVBL  
TYLER NOT AVBL  
DAL FT WORTH CLEAR 81 67 62 S8 29.92R  

 
 
!TXZ136-TXZ165-230600  
TYLER...LUFKIN RADIOS  
 
CITY SKY/WX TMP DP RH WIND PRES REMARKS
 
TYLER NOT AVBL  
GILMER CLEAR 73 69 88 CALM 29.96R  
LUFKIN NOT AVBL  

 
 
!TXZ136-TXZ165-230600  
OTHER LOCATIONS...  
 
CITY SKY/WX TMP DP RH WIND PRES REMARKS
 
NACOGDOCHES CLEAR 72 71 97 CALM 29.95S  
BEAUMONT NOT AVBL  
HOUSTON CLEAR 76 73 91 CALM 29.92S  
AUSTIN CLEAR 73 72 94 S5 29.93R  
DAL FT WORTH CLEAR 81 67 62 S8 29.92R  
TEXARKANA CLEAR 76 68 76 SE5 29.96S  
SHREVEPORT NOT AVBL  
FORT POLK CLEAR 74 70 86 CALM 29.93S  
LAKE CHARLES NOT AVBL  

 
 
 
CLICK HERE TO GO TO PREVIOUS BULLETINS.

The Nexlab LA Page
The Nexlab TX Page
The Nexlab AR Page
The Nexlab OK Page Main Text Page